Location: Caltech
(34.1382°N, 118.1253°W)
Time: 22:57:57
(UTC-07:00)

Cosmos 2219 - Visible Passes

Search period start: 30 September 2014 00:00
Search period end: 10 October 2014 00:00
Orbit: 835 x 859 km, 71.1° (Epoch: 30 September)

Date Brightness Start Highest point End Pass type
(mag) Time Alt. Az. Time Alt. Az. Time Alt. Az.
30 Sep 5.7 19:18:47 10° NW 19:23:15 25° WSW 19:27:44 10° SSW visible
01 Oct 5.7 19:05:23 10° NW 19:09:55 26° WSW 19:14:27 10° SSW visible
03 Oct 6.4 06:14:20 10° SE 06:17:29 15° E 06:20:38 10° ENE visible
04 Oct 6.3 06:01:06 10° SE 06:04:09 15° E 06:07:11 10° ENE visible
05 Oct 6.3 05:47:52 10° SE 05:50:48 15° E 05:53:44 10° ENE visible
06 Oct 6.3 05:34:39 10° SE 05:37:28 14° E 05:40:17 10° ENE visible
07 Oct 6.2 05:21:26 10° SE 05:24:07 14° E 05:26:49 10° ENE visible
08 Oct 6.2 05:08:14 10° SE 05:10:47 13° E 05:13:20 10° ENE visible
09 Oct 6.2 04:55:02 10° ESE 04:57:26 13° E 04:59:51 10° ENE visible
